TimeEST,TemperatureF,Dew PointF,Humidity,Sea Level PressureIn,VisibilityMPH,Wind Direction,Wind SpeedMPH,Gust SpeedMPH,PrecipitationIn,Events,Conditions,WindDirDegrees,DateUTC
12:30 AM,33.8,8.6,35,29.81,2.5,SSW,6.9,-,0.00,Snow,Light Snow,210,2013-12-15 05:30:00
12:53 AM,33.1,8.1,35,29.85,2.5,SW,6.9,-,0.00,Snow,Light Snow,220,2013-12-15 05:53:00
1:23 AM,32.0,8.6,38,29.79,1.8,SSW,5.8,-,0.00,Snow,Light Snow,210,2013-12-15 06:23:00
1:53 AM,30.9,8.1,38,29.81,1.2,SSW,3.5,-,0.00,Snow,Light Snow,210,2013-12-15 06:53:00
2:08 AM,28.4,8.6,43,29.76,2.0,South,3.5,-,0.00,Snow,Light Snow,180,2013-12-15 07:08:00
2:21 AM,28.4,8.6,43,29.76,1.0,SSW,3.5,-,0.00,Snow,Light Snow,200,2013-12-15 07:21:00
2:39 AM,32.0,8.6,38,29.75,1.2,SW,3.5,-,0.00,Snow,Light Snow,220,2013-12-15 07:39:00
2:53 AM,34.0,8.1,34,29.79,1.5,SSW,4.6,-,0.00,Snow,Light Snow,210,2013-12-15 07:53:00
3:17 AM,33.8,8.6,35,29.73,2.0,SSW,4.6,-,0.00,Snow,Light Snow,210,2013-12-15 08:17:00
3:29 AM,33.8,8.6,35,29.73,4.0,SSW,5.8,-,0.00,,Haze,210,2013-12-15 08:29:00
3:37 AM,33.8,8.6,35,29.72,1.8,WSW,8.1,-,0.00,Snow,Light Snow,240,2013-12-15 08:37:00
3:48 AM,30.2,10.4,44,29.71,0.8,SW,12.7,-,0.00,Snow,Light Snow,230,2013-12-15 08:48:00
3:53 AM,30.0,10.9,45,29.76,0.8,WSW,10.4,18.4,0.00,Snow,Light Snow,240,2013-12-15 08:53:00
4:00 AM,28.4,10.4,47,29.71,0.5,WSW,11.5,-,0.00,Snow,Snow,240,2013-12-15 09:00:00
4:17 AM,28.4,12.2,51,29.70,1.5,West,19.6,23.0,0.00,Snow,Light Snow,280,2013-12-15 09:17:00
4:25 AM,28.4,12.2,51,29.70,3.0,WNW,17.3,-,0.00,Snow,Light Snow,290,2013-12-15 09:25:00
4:39 AM,28.4,12.2,51,29.69,4.0,WNW,19.6,-,0.00,Snow,Light Snow,290,2013-12-15 09:39:00
4:45 AM,26.6,12.2,55,29.69,1.8,WNW,24.2,28.8,0.00,Snow,Light Snow,290,2013-12-15 09:45:00
4:53 AM,19.0,12.9,77,29.74,1.0,WNW,24.2,-,0.00,Snow,Light Snow,290,2013-12-15 09:53:00
5:05 AM,17.6,14.0,86,29.69,0.8,NW,27.6,34.5,0.00,Snow,Light Snow,310,2013-12-15 10:05:00
5:20 AM,17.6,12.2,79,29.70,0.2,NW,25.3,40.3,0.00,Snow,Heavy Snow,320,2013-12-15 10:20:00
5:44 AM,15.8,10.4,79,29.71,0.2,NW,24.2,35.7,0.00,Snow,Heavy Snow,320,2013-12-15 10:44:00
5:53 AM,16.0,10.9,81,29.78,0.2,NNW,23.0,33.4,0.00,Snow,Heavy Snow,330,2013-12-15 10:53:00
6:04 AM,15.8,10.4,79,29.72,0.5,NNW,23.0,34.5,0.00,Snow,Snow,330,2013-12-15 11:04:00
6:38 AM,15.8,10.4,79,29.72,0.2,NNW,20.7,29.9,0.00,,Haze,330,2013-12-15 11:38:00
6:53 AM,15.1,10.0,80,29.80,0.5,NNW,20.7,27.6,0.00,,Haze,330,2013-12-15 11:53:00
7:20 AM,14.0,8.6,79,29.74,0.8,NNW,21.9,29.9,0.00,Snow,Light Snow,330,2013-12-15 12:20:00
7:39 AM,14.0,8.6,79,29.74,0.5,NNW,21.9,28.8,0.00,Snow,Snow,340,2013-12-15 12:39:00
7:53 AM,12.9,8.1,81,29.81,0.8,NNW,20.7,27.6,0.00,Snow,Light Snow,340,2013-12-15 12:53:00
8:06 AM,12.2,8.6,85,29.75,1.0,NNW,20.7,27.6,0.00,Snow,Light Snow,340,2013-12-15 13:06:00
8:13 AM,12.2,6.8,79,29.75,0.8,NNW,19.6,29.9,0.00,Snow,Light Snow,340,2013-12-15 13:13:00
8:34 AM,12.2,6.8,79,29.76,0.8,NNW,19.6,25.3,0.00,Snow,Light Snow,330,2013-12-15 13:34:00
8:48 AM,12.2,6.8,79,29.76,1.0,NNW,21.9,29.9,0.00,Snow,Light Snow,330,2013-12-15 13:48:00
8:49 AM,12.0,6.1,77,29.81,1.0,NNW,20.7,29.9,0.00,Snow,Light Snow,330,2013-12-15 13:49:00
8:53 AM,12.2,6.8,79,29.76,0.8,NNW,23.0,-,0.00,Snow,Light Snow,330,2013-12-15 13:53:00
9:26 AM,12.2,6.8,79,29.77,0.2,NNW,24.2,32.2,0.00,,Haze,330,2013-12-15 14:26:00
9:37 AM,12.2,6.8,79,29.77,0.5,NNW,20.7,28.8,0.00,Snow,Snow,330,2013-12-15 14:37:00
9:51 AM,12.2,6.8,79,29.77,0.2,NW,23.0,31.1,0.00,Snow,Heavy Snow,320,2013-12-15 14:51:00
9:53 AM,12.0,7.0,80,29.83,0.2,NNW,23.0,31.1,0.00,Snow,Heavy Snow,330,2013-12-15 14:53:00
10:48 AM,12.0,6.1,77,29.85,0.5,NNW,17.3,26.5,0.00,Snow,Snow,330,2013-12-15 15:48:00
11:23 AM,12.2,6.8,79,29.81,0.2,NNW,16.1,25.3,0.00,Snow,Heavy Snow,330,2013-12-15 16:23:00
11:53 AM,12.0,7.0,80,29.87,0.2,NNW,17.3,-,0.00,Snow,Heavy Snow,330,2013-12-15 16:53:00
12:53 PM,12.0,6.1,77,29.88,0.2,NNW,16.1,24.2,0.00,Snow,Heavy Snow,330,2013-12-15 17:53:00
1:53 PM,12.9,7.0,77,29.89,0.2,NNW,15.0,-,0.00,Snow,Heavy Snow,340,2013-12-15 18:53:00
2:47 PM,12.2,5.0,73,29.85,0.5,NNW,13.8,-,0.00,,Haze,340,2013-12-15 19:47:00
2:53 PM,12.0,5.0,73,29.91,0.8,North,13.8,-,0.00,,Haze,350,2013-12-15 19:53:00
2:57 PM,12.2,5.0,73,29.85,1.0,NNW,12.7,-,N/A,,Haze,340,2013-12-15 19:57:00
3:13 PM,12.2,6.8,79,29.85,0.5,North,10.4,-,N/A,,Haze,350,2013-12-15 20:13:00
3:24 PM,12.2,6.8,79,29.86,0.2,North,12.7,-,0.00,Snow,Heavy Snow,350,2013-12-15 20:24:00
3:31 PM,12.2,6.8,79,29.86,0.2,North,12.7,-,0.00,Snow,Heavy Snow,350,2013-12-15 20:31:00
3:53 PM,12.0,6.1,77,29.94,0.5,North,10.4,-,0.00,Snow,Snow,350,2013-12-15 20:53:00
4:04 PM,10.4,6.8,85,29.88,0.2,North,9.2,-,0.00,Snow,Heavy Snow,360,2013-12-15 21:04:00
4:09 PM,10.4,5.0,79,29.89,0.5,North,10.4,-,0.00,Snow,Snow,360,2013-12-15 21:09:00
4:35 PM,10.4,5.0,79,29.90,1.2,North,10.4,-,0.00,Snow,Light Snow,350,2013-12-15 21:35:00
4:53 PM,10.9,5.0,77,29.97,1.2,North,11.5,-,0.00,Snow,Light Snow,360,2013-12-15 21:53:00
4:59 PM,10.4,5.0,79,29.91,0.8,North,10.4,-,0.00,Snow,Light Snow,360,2013-12-15 21:59:00
5:20 PM,10.4,5.0,79,29.92,0.8,North,12.7,18.4,0.00,,Haze,360,2013-12-15 22:20:00
5:23 PM,10.4,5.0,79,29.92,1.0,North,9.2,18.4,0.00,,Haze,360,2013-12-15 22:23:00
5:48 PM,10.4,3.2,73,29.93,1.5,North,10.4,-,0.00,,Haze,350,2013-12-15 22:48:00
5:53 PM,10.9,3.9,73,30.00,1.2,North,9.2,-,0.00,,Haze,350,2013-12-15 22:53:00
6:12 PM,10.4,5.0,79,29.94,1.0,North,9.2,-,N/A,,Haze,350,2013-12-15 23:12:00
6:19 PM,10.4,5.0,79,29.94,0.8,North,11.5,-,N/A,,Haze,350,2013-12-15 23:19:00
6:29 PM,10.4,5.0,79,29.94,0.5,NNW,12.7,-,N/A,,Haze,340,2013-12-15 23:29:00
6:53 PM,10.0,5.0,80,30.01,0.8,North,11.5,-,N/A,,Haze,350,2013-12-15 23:53:00
7:12 PM,10.4,3.2,73,29.95,1.0,North,8.1,-,N/A,,Haze,10,2013-12-16 00:12:00
7:30 PM,10.4,5.0,79,29.96,0.5,North,12.7,18.4,N/A,,Haze,10,2013-12-16 00:30:00
7:44 PM,10.4,5.0,79,29.96,1.0,North,10.4,-,N/A,,Haze,10,2013-12-16 00:44:00
7:53 PM,10.0,3.9,76,30.04,1.0,North,13.8,-,N/A,,Haze,360,2013-12-16 00:53:00
8:03 PM,10.4,3.2,73,29.97,0.8,North,10.4,-,0.00,Snow,Light Snow,350,2013-12-16 01:03:00
8:09 PM,10.4,3.2,73,29.97,1.0,North,12.7,-,0.00,Snow,Light Snow,360,2013-12-16 01:09:00
8:28 PM,10.4,3.2,73,29.98,1.0,North,10.4,-,0.00,Snow,Light Snow,350,2013-12-16 01:28:00
8:53 PM,9.0,3.9,80,30.06,1.0,NNW,6.9,-,0.00,Snow,Light Snow,340,2013-12-16 01:53:00
9:22 PM,8.6,3.2,79,29.99,1.8,NNW,8.1,-,0.00,Snow,Light Snow,340,2013-12-16 02:22:00
9:53 PM,8.1,3.0,80,30.08,1.5,NW,5.8,-,0.00,Snow,Light Snow,320,2013-12-16 02:53:00
10:06 PM,8.6,3.2,79,30.00,1.0,Calm,Calm,-,0.00,Snow,Light Snow,0,2013-12-16 03:06:00
10:15 PM,8.6,3.2,79,30.00,0.8,NW,4.6,-,0.00,Snow,Light Snow,320,2013-12-16 03:15:00
10:25 PM,8.6,3.2,79,30.00,1.0,Calm,Calm,-,0.00,Snow,Light Snow,0,2013-12-16 03:25:00
10:53 PM,10.0,3.9,76,30.08,1.2,Calm,Calm,-,0.00,Snow,Light Snow,0,2013-12-16 03:53:00
11:03 PM,8.6,3.2,79,30.01,2.0,Calm,Calm,-,0.00,Snow,Light Snow,0,2013-12-16 04:03:00
11:14 PM,8.6,3.2,79,30.01,3.0,Calm,Calm,-,0.00,Snow,Light Snow,0,2013-12-16 04:14:00
11:53 PM,8.1,3.0,80,30.10,1.8,Calm,Calm,-,0.00,Snow,Light Snow,0,2013-12-16 04:53:00